Time,TemperatureF,DewpointF,PressureIn,WindDirection,WindDirectionDegrees,WindSpeedMPH,WindSpeedGustMPH,Humidity,HourlyPrecipIn,Conditions,Clouds,dailyrainin,SolarRadiationWatts/m^2,SoftwareType,DateUTC
2014-08-30 00:02:00,57.0,53.4,29.92,SSW,200,9.0,15.0,88,0.00,,,0.00,0.0,meteohub,2014-08-30 07:02:00,
2014-08-30 00:07:00,57.2,53.4,29.92,WSW,252,8.0,14.0,87,0.00,,,0.00,0.0,meteohub,2014-08-30 07:07:00,
2014-08-30 00:12:00,57.4,53.6,29.92,SW,224,9.0,16.0,87,0.00,,,0.00,0.0,meteohub,2014-08-30 07:12:00,
2014-08-30 00:17:00,57.2,53.6,29.92,SSW,200,13.0,16.0,88,0.00,,,0.00,0.0,meteohub,2014-08-30 07:17:00,
2014-08-30 00:22:00,57.0,53.4,29.92,West,260,7.0,15.0,88,0.00,,,0.00,0.0,meteohub,2014-08-30 07:22:00,
2014-08-30 00:27:00,56.8,53.2,29.92,SSW,209,6.0,15.0,88,0.00,,,0.00,0.0,meteohub,2014-08-30 07:27:00,
2014-08-30 00:32:00,56.8,53.2,29.92,SSW,192,8.0,15.0,88,0.00,,,0.00,0.0,meteohub,2014-08-30 07:32:00,
2014-08-30 00:37:00,56.8,53.6,29.92,South,185,7.0,14.0,89,0.00,,,0.00,0.0,meteohub,2014-08-30 07:37:00,
2014-08-30 00:42:00,56.7,53.4,29.92,SSW,199,7.0,14.0,89,0.00,,,0.00,0.0,meteohub,2014-08-30 07:42:00,
2014-08-30 00:47:00,56.7,53.4,29.92,SSW,205,8.0,12.0,89,0.00,,,0.00,0.0,meteohub,2014-08-30 07:47:00,
2014-08-30 00:52:00,56.7,53.4,29.92,SSW,200,7.0,12.0,89,0.00,,,0.00,0.0,meteohub,2014-08-30 07:52:00,
2014-08-30 00:57:00,56.7,53.4,29.92,SE,132,4.0,12.0,89,0.00,,,0.00,0.0,meteohub,2014-08-30 07:57:00,
2014-08-30 01:02:00,56.8,53.2,29.92,SSW,203,7.0,11.0,88,0.00,,,0.00,0.0,meteohub,2014-08-30 08:02:00,
2014-08-30 01:07:00,56.8,53.2,29.92,WSW,238,4.0,11.0,88,0.00,,,0.00,0.0,meteohub,2014-08-30 08:07:00,
2014-08-30 01:12:00,57.0,53.4,29.92,WSW,246,7.0,14.0,88,0.00,,,0.00,0.0,meteohub,2014-08-30 08:12:00,
2014-08-30 01:17:00,57.0,53.4,29.92,ESE,117,8.0,14.0,88,0.00,,,0.00,0.0,meteohub,2014-08-30 08:17:00,
2014-08-30 01:22:00,56.8,53.2,29.92,NNE,23,5.0,18.0,88,0.00,,,0.00,0.0,meteohub,2014-08-30 08:22:00,
2014-08-30 01:27:00,56.7,53.8,29.92,South,185,10.0,18.0,90,0.00,,,0.00,0.0,meteohub,2014-08-30 08:27:00,
2014-08-30 01:32:00,56.1,53.6,29.92,SSW,204,7.0,18.0,91,0.00,,,0.00,0.0,meteohub,2014-08-30 08:32:00,
2014-08-30 01:37:00,55.9,53.4,29.92,SSW,200,9.0,13.0,91,0.00,,,0.00,0.0,meteohub,2014-08-30 08:37:00,
2014-08-30 01:42:00,55.8,53.4,29.91,SSW,203,5.0,13.0,92,0.00,,,0.00,0.0,meteohub,2014-08-30 08:42:00,
2014-08-30 01:47:00,55.8,53.4,29.92,SSW,194,7.0,13.0,92,0.00,,,0.00,0.0,meteohub,2014-08-30 08:47:00,
2014-08-30 01:52:00,55.8,53.8,29.92,SSW,194,7.0,13.0,93,0.00,,,0.00,0.0,meteohub,2014-08-30 08:52:00,
2014-08-30 01:57:00,55.8,53.4,29.91,WSW,238,6.0,13.0,92,0.00,,,0.00,0.0,meteohub,2014-08-30 08:57:00,
2014-08-30 02:02:00,55.8,53.4,29.92,SSW,205,7.0,12.0,92,0.00,,,0.00,0.0,meteohub,2014-08-30 09:02:00,
2014-08-30 02:07:00,55.8,53.4,29.92,SSE,158,4.0,12.0,92,0.00,,,0.00,0.0,meteohub,2014-08-30 09:07:00,
2014-08-30 02:12:00,55.9,53.1,29.91,SSW,200,9.0,12.0,90,0.00,,,0.00,0.0,meteohub,2014-08-30 09:12:00,
2014-08-30 02:17:00,56.1,53.6,29.91,SSW,203,6.0,14.0,91,0.00,,,0.00,0.0,meteohub,2014-08-30 09:17:00,
2014-08-30 02:22:00,55.8,53.4,29.91,South,190,6.0,14.0,92,0.00,,,0.00,0.0,meteohub,2014-08-30 09:22:00,
2014-08-30 02:27:00,55.8,53.4,29.91,SSW,196,7.0,14.0,92,0.00,,,0.00,0.0,meteohub,2014-08-30 09:27:00,
2014-08-30 02:32:00,55.8,53.4,29.91,SW,215,4.0,12.0,92,0.00,,,0.00,0.0,meteohub,2014-08-30 09:32:00,
2014-08-30 02:37:00,55.9,53.4,29.91,SSE,162,5.0,11.0,91,0.00,,,0.00,0.0,meteohub,2014-08-30 09:37:00,
2014-08-30 02:43:00,55.9,53.4,29.91,SSE,167,6.0,11.0,91,0.00,,,0.00,0.0,meteohub,2014-08-30 09:43:00,
2014-08-30 02:48:00,55.9,53.4,29.91,South,182,4.0,12.0,91,0.00,,,0.00,0.0,meteohub,2014-08-30 09:48:00,
2014-08-30 02:53:00,55.9,53.4,29.91,SSW,205,7.0,14.0,91,0.00,,,0.00,0.0,meteohub,2014-08-30 09:53:00,
2014-08-30 02:58:00,55.9,53.4,29.91,SW,223,6.0,14.0,91,0.00,,,0.00,0.0,meteohub,2014-08-30 09:58:00,
2014-08-30 03:03:00,55.9,53.4,29.91,SW,214,2.0,14.0,91,0.00,,,0.00,0.0,meteohub,2014-08-30 10:03:00,
2014-08-30 03:08:00,55.8,53.2,29.91,SSW,199,6.0,12.0,91,0.00,,,0.00,0.0,meteohub,2014-08-30 10:08:00,
2014-08-30 03:13:00,55.6,53.2,29.91,SSW,207,7.0,12.0,92,0.00,,,0.00,0.0,meteohub,2014-08-30 10:13:00,
2014-08-30 03:18:00,55.6,53.2,29.91,SSW,212,5.0,10.0,92,0.00,,,0.00,0.0,meteohub,2014-08-30 10:18:00,